Overview Statistics Trail Chart Weather Telemetry Raw packets
 

This is the latest recevied weather packets stored in our database for station/object CE3TDM-10. If no packets are shown the sender has not sent any weather packets the latest 10 day(s).

<< 23 24 25 26 27 28 29 >>
Time Temp. Humidity Pressure Rain* Wind** Luminosity Snow
1787850258 26.67° C 38% 916.9 hPa - - - -
1787849359 25.56° C 38% 917.1 hPa - - - -
1787848457 25° C 38% 917.1 hPa - - - -
1787847557 23.89° C 38% 917.1 hPa - - - -
1787845757 23.89° C 37% 917.2 hPa - - - -
1787844857 23.89° C 37% 917.2 hPa - - - -
1787843957 24.44° C 37% 917.1 hPa - - - -
1787842157 25.56° C 36% 917.1 hPa - - - -
1787841257 26.11° C 36% 917.1 hPa - - - -
1787840357 26.67° C 36% 917 hPa - - - -
1787838556 27.22° C 36% 916.9 hPa - - - -
1787837656 25.56° C 36% 916.9 hPa - - - -
1787836756 25° C 36% 917 hPa - - - -
1787835856 24.44° C 36% 916.8 hPa - - - -
1787834956 24.44° C 35% 916.9 hPa - - - -
1787834056 25° C 35% 916.7 hPa - - - -
1787833157 25° C 35% 916.5 hPa - - - -
1787832256 25.56° C 35% 916.2 hPa - - - -
1787831356 26.11° C 35% 916.2 hPa - - - -
1787830457 26.11° C 35% 916 hPa - - - -
1787829556 26.67° C 35% 916 hPa - - - -
1787828656 27.22° C 35% 916 hPa - - - -
1787827758 27.22° C 36% 915.9 hPa - - - -
1787826855 26.67° C 38% 915.7 hPa - - - -
1787825955 22.78° C 42% 915.7 hPa - - - -

* Rain since midnight (hover to see other rain measurements)
** Current wind speed in m/s (hover to see current wind gust speed)